COSMOS 2491 DEB, 57557

Orbit data source: Space-Track

COSMOS 2491 DEB, 57557 is space debris in LEO originally from a launch on Wed, 25 Dec 2013 UTC launched from the Plesetsk Missile And Space Complex (PKMTR). Debris objects in space refer to the collection of defunct objects orbiting the Earth. Examples of debris include non-operational satellites, rocket bodies, and fragments generated from explosions, collisions, or faulty payload assembly.

Loading next visibility...
Identifier
57557, 2013-076AU
Orbit
LEO
Country
Flag of CISCIS
Related business
Manufacturer
TsNIIKhM
Mission
Spacecraft
Bus & Motor
Unknown
Mass
Unknown
Launch date (UTC)
2013-12-25 (13 years ago)
Launch vehicle
Unknown
Launch site
Plesetsk Missile And Space Complex (PKMTR)
Object type
Payload
Rocket body
Debris
Shape & HBR
Unknown shape, 0.1 m
Radar Cross Section
Medium (>0.1 m² and <1 m²)

Expand to show TLE details & history
Last TLE update: 2 weeks ago

TLE from 2 weeks ago
0 COSMOS 2491 DEB
1 57557U 13076AU  26245.36344761 -.00000315  00000-0 -21805-2 0  9998
2 57557  82.4743 118.0553 0086685 291.9014  67.2869 12.47283044150808
Epoch: 2026-09-02T08:43Z
TLE epoch observation values (Epoch: 2026-09-02T08:43:21.873Z)
Latitude
0.00001°
Longitude
5.69712°
Altitude
1,452.798 km
Speed
7.148 km/s
True Right ascension
07h 52m 13s
True Declination
0° 00' 00"
Sunlit
Object was in daylight at epoch
Visualization orbit readout
Latitude
Unknown
Longitude
Unknown
Altitude
Unknown
Speed
Unknown
Apparent Right ascension
Unknown
Apparent Declination
Unknown
Sunlit
N/A
Visualization observer readout
Local Sidereal Time
23:21:24
Azimuth
Unknown
Elevation
Unknown
Doppler factor
Unknown
Orbital elements
Apogee altitude
1,541.285 km
Perigee altitude
1,405.166 km
Semi-major axis
7,851.363 km
Eccentricity
0.00867
Inclination
82.4743°
RAAN
118.0553°
Arg. of periapsis
291.9014°
True anomaly
68.20701°
Mean anomaly
67.2869°
Eccentric anomaly
67.74658°
Mean motion
3.11979 °/min
Orbital period
115.39 mins
BSTAR
-0.0021805
Loading maneuver chart data...
Computing Atmospheric mass density...
Loading historical data...
Loading historical data...
Loading historical data...
Loading historical data...
Loading historical data...
Loading historical data...
Loading historical data...

Documentation

Showing up to 5 results
|